Wind_Speed
25 25 23 22 24 26 27 28 28 28 25 24 23 24 25 23 22 22 21 20 19 19 20 20 20 20 19 18 19 19 20 19 16 13 11 11 11 9 8 7 5 5 5 7 10 12 14 15 14 14 15 16 16 15 15 15 15 15 14 14 14 14 14 13 13 13 13 13 13 12 12 13 14 15 15 14 14 14 14 14 13 13 13 12 13 14
23 23 22 24 26 27 28 29 31 31 28 26 26 27 28 25 24 24 23 22 21 22 22 21 20 20 19 19 19 20 20 20 19 16 15 15 14 11 9 8 7 5 5 6 8 11 13 15 14 14 15 16 17 16 15 16 16 15 14 14 14 14 14 14 13 13 12 12 12 12 12 13 14 15 15 14 14 14 14 14 14 13 12 12 13 14
20 20 24 28 29 28 28 29 31 32 32 29 28 29 30 27 26 26 25 25 23 24 24 22 21 21 20 20 20 21 21 21 21 20 19 19 17 14 12 10 8 6 5 6 8 10 12 15 15 14 15 17 18 17 16 15 15 15 14 14 13 13 13 13 13 12 11 10 11 11 11 12 14 14 14 14 13 13 14 14 14 13 12 12 13 13
18 20 26 29 30 29 29 29 30 32 33 32 30 30 31 31 29 28 28 27 25 25 25 24 23 22 21 21 20 20 21 22 23 22 21 20 19 17 15 13 12 11 8 7 9 11 13 14 16 16 16 16 17 17 16 15 16 16 15 14 13 12 11 12 12 12 11 11 10 10 11 12 13 13 14 14 14 13 13 14 13 12 12 13 13 13
20 24 27 28 28 29 29 29 30 30 31 32 31 30 31 32 32 30 29 29 27 26 25 25 24 23 21 21 20 19 19 20 22 22 20 19 19 16 13 12 13 13 12 9 10 13 14 15 16 18 17 16 16 18 18 17 16 16 17 16 14 13 12 11 11 12 12 12 11 12 13 13 13 13 14 15 15 15 14 13 12 12 12 12 13 13
25 27 28 27 26 28 29 29 30 30 30 31 31 30 29 31 32 32 31 30 28 27 27 27 25 24 23 22 21 19 17 18 20 19 18 17 17 15 12 10 11 13 12 10 9 11 14 17 18 19 18 17 17 18 19 18 17 16 16 16 15 14 13 12 11 12 13 13 13 14 15 15 16 15 15 16 16 15 15 14 12 12 12 12 12 13
28 28 28 27 27 27 29 30 30 30 30 29 29 29 30 31 32 32 32 31 30 29 31 30 27 26 25 23 22 21 20 20 21 19 16 14 14 14 13 11 12 13 13 11 8 8 10 14 17 18 19 19 18 19 19 18 17 16 15 15 16 15 14 13 13 13 14 14 15 15 14 14 15 15 15 16 17 16 15 15 14 12 12 12 12 12
28 28 28 29 28 27 27 28 30 30 29 26 27 31 32 32 33 33 33 32 31 32 33 30 28 27 25 24 24 23 23 23 22 20 16 13 13 13 13 13 12 14 15 14 12 11 10 11 14 18 20 21 21 20 19 19 18 17 16 16 16 16 16 15 14 14 14 14 14 14 13 13 13 14 14 15 16 16 16 16 15 13 13 12 12 12
29 28 29 30 29 28 27 28 30 30 28 26 30 34 35 35 35 36 35 33 34 35 33 30 29 28 25 24 24 24 22 21 21 20 16 13 12 13 14 14 14 15 16 15 15 15 14 13 14 17 21 23 24 22 20 20 19 18 17 17 16 16 17 16 15 15 14 13 13 13 13 13 13 13 13 14 15 16 16 16 16 14 14 13 13 13
30 29 30 30 29 29 29 30 29 29 29 31 33 34 36 37 38 38 36 34 35 35 33 31 30 28 26 24 23 20 15 13 17 19 17 14 12 12 13 15 16 17 16 15 16 16 17 17 17 19 22 24 25 24 23 21 20 19 17 17 17 17 17 17 16 15 14 13 13 13 13 14 14 14 14 15 15 16 16 16 16 15 14 14 13 13
32 31 30 30 30 30 31 31 29 29 31 33 33 33 35 38 39 39 38 36 37 35 32 31 31 29 28 27 24 18 11 10 14 17 17 14 12 11 13 15 17 17 16 16 16 17 18 19 19 19 20 22 24 25 25 22 20 20 18 17 18 19 18 17 16 15 14 14 14 14 14 14 15 15 16 16 16 17 17 16 16 16 15 14 13 13
33 32 32 31 30 30 31 32 31 31 32 34 34 33 34 37 40 41 40 39 39 36 32 31 31 29 28 27 25 22 19 18 18 18 17 16 15 15 16 16 17 18 18 18 17 17 18 19 18 15 16 19 22 23 24 23 21 20 19 18 18 18 18 17 16 15 15 15 16 15 15 15 15 16 16 16 16 16 16 15 15 14 14 14 13 13
33 33 32 32 31 31 32 33 33 33 33 34 35 35 35 37 40 42 41 41 40 36 32 32 32 30 27 26 27 26 26 24 22 22 22 22 21 20 20 20 20 20 20 18 17 17 18 18 17 14 13 14 17 19 21 23 23 21 21 20 18 18 18 18 17 16 16 16 16 16 16 16 15 15 15 15 14 14 14 13 13 12 12 12 11 11
32 32 32 32 32 32 33 34 34 34 35 35 35 36 37 37 40 42 43 42 41 37 34 33 33 32 29 27 27 28 27 26 24 24 25 25 25 24 23 23 23 24 23 21 18 17 17 17 18 16 14 13 15 17 19 22 23 23 22 21 19 19 18 18 17 17 17 17 17 17 16 16 16 15 15 14 13 12 12 12 11 11 10 10 10 10
31 32 32 32 32 33 33 34 35 35 35 35 36 36 37 38 39 41 42 43 42 39 35 35 35 33 31 28 27 27 26 24 23 23 24 24 24 25 24 23 23 24 25 25 22 18 17 18 19 18 16 15 16 18 20 21 22 23 23 22 22 21 20 19 19 18 18 18 18 17 16 16 16 15 15 15 14 13 12 11 11 11 10 10 9 10
31 31 32 32 32 33 33 34 35 35 36 36 36 36 38 39 39 39 41 42 42 41 38 37 37 35 32 30 29 28 26 25 25 24 23 23 23 23 21 20 20 21 24 25 24 21 18 19 20 19 17 16 17 18 20 21 22 23 24 24 24 24 22 21 21 20 19 19 19 19 18 17 16 15 15 14 14 13 12 11 10 9 9 8 8 9
30 31 32 32 32 33 33 34 35 35 36 37 37 38 38 38 38 39 40 42 43 42 41 40 39 37 34 33 33 31 29 27 27 26 24 23 22 20 18 17 18 19 21 23 24 22 20 19 21 20 17 16 16 16 18 20 22 23 25 26 26 26 25 23 22 22 21 20 20 19 19 18 16 15 15 15 15 14 13 12 10 9 8 7 7 7
29 30 31 32 32 33 33 33 34 35 36 37 38 39 39 38 40 41 42 42 43 43 43 42 41 40 37 35 34 33 31 30 29 27 24 22 21 18 17 17 17 18 20 22 23 24 22 21 22 20 17 16 16 15 17 19 22 25 26 27 28 27 26 25 24 24 23 22 21 21 20 19 18 17 16 16 15 14 13 12 11 9 8 7 7 7
27 28 29 31 31 33 33 33 33 34 35 36 38 38 39 39 41 42 43 44 43 43 44 44 43 42 40 38 35 34 34 33 32 29 25 23 21 18 17 17 17 18 19 20 22 23 22 22 24 21 18 17 17 16 17 19 23 26 27 28 28 28 28 28 28 26 25 23 23 22 21 21 20 20 19 17 16 14 13 12 12 10 9 7 7 7
26 27 29 30 30 31 33 33 33 33 33 35 37 38 39 40 42 43 44 45 44 43 44 45 44 44 43 40 37 37 37 37 35 33 29 26 22 18 18 18 17 16 16 17 19 21 21 23 25 23 20 18 18 18 17 18 20 23 27 28 29 30 30 30 29 28 26 25 24 24 22 22 21 21 20 18 16 15 15 14 13 11 10 8 8 7
26 27 28 29 29 31 32 33 34 33 33 34 35 38 40 41 42 43 44 46 45 44 44 45 45 45 45 43 40 38 39 39 38 36 33 29 25 21 20 20 19 16 15 15 17 19 20 21 23 23 22 21 20 20 19 17 18 21 25 28 29 31 31 30 29 28 27 27 26 25 24 23 22 21 21 19 18 17 16 15 14 13 11 10 9 9
26 27 28 29 30 30 32 33 34 33 33 34 35 36 39 40 42 43 44 46 47 47 46 46 47 47 46 45 42 40 39 40 40 39 36 33 29 26 24 23 20 16 15 17 17 19 21 22 21 22 23 23 23 21 20 18 18 18 21 25 29 31 31 31 30 29 29 28 27 26 25 25 24 23 22 20 19 19 17 16 15 14 12 12 11 11
28 28 29 30 30 31 32 33 34 34 34 34 35 36 37 39 41 43 44 46 47 48 48 47 47 47 47 47 45 42 41 41 40 40 38 35 33 31 29 28 25 21 18 18 20 22 23 24 25 25 26 26 25 22 21 20 19 18 18 22 27 29 30 31 31 31 30 30 28 28 27 27 26 24 23 21 20 20 19 18 16 15 14 14 13 13
30 30 31 32 33 33 33 33 34 34 34 35 35 36 37 38 40 42 44 45 46 48 49 49 49 49 49 48 47 46 44 42 41 40 39 37 36 35 33 32 31 29 26 22 21 23 25 26 28 29 29 28 26 24 23 21 21 20 19 20 23 27 30 32 32 32 32 31 30 30 29 28 27 25 23 22 21 21 20 19 18 16 16 16 15 14
31 32 33 34 35 35 35 35 36 36 36 36 37 37 38 39 39 41 43 45 46 47 48 49 50 51 51 50 50 49 47 44 42 42 41 39 38 39 39 37 36 33 31 29 26 24 24 26 28 29 30 29 28 27 25 24 23 23 21 20 21 25 30 33 33 33 33 33 32 31 30 29 27 25 23 23 22 22 22 21 20 19 19 18 17 16
30 33 35 36 37 38 38 38 38 38 38 38 38 39 39 40 40 41 42 44 46 47 48 49 50 52 53 52 51 50 49 47 45 44 44 42 41 42 43 43 41 38 35 34 32 30 28 26 26 27 29 31 31 30 29 28 27 25 24 23 22 24 29 33 34 34 34 34 34 33 31 30 28 26 25 25 25 25 25 24 22 22 21 20 19 18
27 30 32 35 37 39 40 40 39 39 39 39 39 40 41 41 41 42 42 43 44 45 47 48 49 51 52 52 52 51 49 49 48 46 46 46 45 45 45 45 44 42 40 38 36 35 33 31 28 26 26 29 32 33 32 32 31 30 28 27 26 26 28 31 35 36 36 36 35 34 33 31 29 28 27 27 28 28 27 26 25 24 23 21 20 20
23 25 28 31 34 37 39 41 41 41 41 41 41 41 41 41 42 43 43 44 44 44 46 48 49 51 51 51 52 51 50 49 48 47 47 47 48 48 47 47 46 45 43 41 38 37 36 35 33 29 27 27 32 35 36 36 35 34 33 31 31 30 29 30 34 37 37 37 37 36 35 33 32 31 30 30 30 30 29 28 27 25 24 23 22 20
21 22 24 26 30 33 37 39 40 41 42 42 43 43 42 42 42 42 43 44 44 44 46 48 49 49 49 50 51 51 50 48 46 45 45 46 48 49 49 48 47 46 45 43 41 40 40 38 37 35 31 29 32 36 38 38 38 38 36 35 34 33 31 30 33 36 38 39 38 37 37 36 35 34 33 32 31 30 29 28 28 27 26 25 23 22
20 22 22 24 26 29 33 36 38 40 42 43 44 44 44 43 43 43 43 43 44 45 46 48 49 49 48 48 50 51 50 48 46 44 43 44 46 48 49 49 47 46 46 45 43 43 42 41 40 39 36 33 33 36 38 38 39 39 39 38 37 35 33 32 32 35 38 39 39 39 39 38 37 36 35 34 32 31 31 30 29 28 27 26 25 24
21 23 23 24 25 27 29 33 36 38 41 43 45 45 45 44 44 44 44 43 44 46 47 48 49 49 48 48 49 50 50 49 46 44 43 43 45 47 48 48 47 46 46 46 46 46 44 42 42 43 41 38 36 36 38 38 38 39 39 39 38 36 34 33 32 33 36 38 39 40 41 40 39 38 37 35 34 33 33 32 31 30 29 28 26 26
23 25 25 26 27 27 28 30 34 37 39 41 44 45 45 46 46 45 45 45 45 46 47 48 49 49 49 48 48 49 49 49 47 46 44 45 47 48 48 49 48 46 46 46 47 48 46 42 43 45 46 43 40 39 38 38 38 39 40 40 38 37 36 34 32 32 34 37 40 41 42 41 41 40 39 37 36 36 35 34 33 32 31 29 28 27
26 27 27 27 28 29 30 31 32 35 37 39 42 44 45 47 48 47 46 46 47 47 48 49 50 51 50 50 49 49 49 49 48 46 46 48 50 50 49 49 49 47 47 48 48 48 46 44 44 47 49 48 45 43 40 38 38 39 40 40 39 38 37 35 33 33 34 37 40 42 43 43 42 42 41 39 39 38 37 36 35 33 32 31 31 30
29 29 29 29 29 30 31 32 33 34 36 38 40 42 44 46 48 49 48 48 48 49 50 50 50 51 52 52 51 51 50 50 49 48 47 50 53 52 51 51 50 48 48 49 50 49 48 47 48 49 51 52 50 48 45 41 38 38 39 40 40 40 38 36 35 35 35 37 40 42 43 44 44 44 43 42 41 40 39 37 36 35 34 34 33 32
29 29 29 29 29 30 31 33 34 36 37 38 38 40 43 45 47 48 49 50 50 50 51 51 51 52 53 53 53 52 52 52 51 50 49 52 55 54 53 53 52 51 51 51 51 51 51 50 51 52 53 54 53 52 49 46 42 39 39 40 41 41 40 39 37 36 36 37 39 42 44 44 44 44 44 44 43 42 41 39 37 36 35 35 35 34
26 27 27 28 28 29 30 32 34 35 36 38 39 40 42 44 46 48 50 51 52 51 51 52 52 52 53 54 54 54 54 53 53 52 52 54 57 57 55 55 54 52 53 53 53 52 53 53 54 55 55 55 55 55 53 51 47 43 41 40 41 41 41 41 40 38 38 39 40 42 43 44 45 45 45 45 45 44 42 40 39 38 37 37 36 36
22 23 24 25 25 26 27 28 30 31 33 35 38 39 41 42 44 46 50 52 53 52 52 53 53 53 53 54 55 55 56 55 55 54 53 55 59 60 58 57 55 54 54 56 56 55 55 55 55 56 57 57 57 57 56 54 52 49 45 43 43 43 43 43 42 41 40 40 41 41 42 43 44 44 44 44 44 43 42 41 40 39 39 38 37 37
20 20 21 22 22 23 24 25 26 28 29 31 33 36 39 41 42 44 47 50 52 53 54 54 55 55 54 54 55 56 58 58 57 56 55 55 59 63 62 60 57 56 58 59 60 59 58 57 57 58 59 59 59 58 58 57 55 53 50 47 46 46 46 46 45 44 43 42 41 41 41 41 41 42 42 42 42 40 39 38 38 39 39 39 38 38
19 19 20 21 22 23 24 25 25 26 27 28 29 32 35 39 42 44 45 47 50 52 55 57 58 58 57 56 56 57 58 60 60 58 57 57 58 62 65 64 61 60 60 61 62 62 61 60 59 60 60 61 61 60 59 59 58 56 54 52 51 52 51 49 48 46 45 43 42 41 40 39 38 39 40 40 40 38 37 36 36 38 39 38 38 38
17 19 20 22 23 24 25 26 26 26 26 26 27 29 31 35 40 44 46 46 47 50 55 58 61 62 60 59 58 58 59 61 62 62 60 59 59 61 65 67 67 65 63 61 61 63 64 63 62 62 62 63 64 62 59 59 59 59 58 55 54 55 54 52 51 49 47 45 43 41 39 37 36 36 36 37 38 38 37 37 36 37 38 37 37 38
14 17 18 20 22 24 25 27 27 27 26 27 27 28 28 31 36 41 45 46 46 48 51 56 61 64 64 63 61 60 60 61 63 64 64 62 62 63 65 67 68 68 66 62 60 63 67 67 65 64 63 64 66 64 60 59 60 60 59 57 55 55 56 54 52 50 48 46 44 42 40 37 35 34 34 35 37 38 38 37 37 37 37 37 37 38
14 15 16 18 20 22 23 25 26 25 26 28 28 27 27 29 32 34 38 42 45 46 49 52 57 62 66 67 66 64 63 62 63 65 66 66 65 65 67 68 69 70 68 64 60 61 66 70 68 65 64 64 67 67 63 61 62 61 60 58 55 54 54 52 50 49 48 47 45 43 41 39 36 34 34 35 37 38 39 38 37 38 37 36 36 36
16 16 16 17 19 20 21 22 22 22 24 26 28 28 27 28 27 27 29 34 37 40 43 47 51 57 63 68 70 69 68 66 64 65 67 68 68 68 69 70 71 72 70 67 61 59 63 69 70 68 64 62 65 68 65 63 64 63 60 58 55 53 53 53 52 50 47 47 48 46 43 41 38 35 35 36 38 40 40 39 37 37 36 35 36 35
17 17 17 17 19 20 20 21 22 22 23 25 27 29 29 29 28 27 28 30 32 34 36 38 43 49 57 64 69 72 73 72 69 67 67 69 70 71 72 72 72 73 73 71 65 59 60 66 70 70 68 63 63 66 67 66 65 64 62 59 56 54 55 56 56 54 49 48 48 47 44 42 40 39 39 39 40 41 40 39 38 37 36 36 35 34
19 19 19 19 20 20 20 21 22 24 26 27 29 30 31 31 31 31 31 32 33 34 34 35 36 41 48 57 65 70 73 76 75 72 69 69 71 73 75 75 75 75 75 74 70 63 61 64 66 67 68 64 61 63 67 69 69 67 64 62 59 57 56 57 57 56 53 49 48 46 44 43 42 42 43 42 42 42 41 40 39 38 36 36 36 34
23 23 22 22 21 21 20 20 22 23 25 26 28 30 32 33 34 34 35 35 36 37 37 37 37 37 41 49 58 65 70 75 78 78 74 72 72 73 76 78 77 77 77 77 75 70 66 65 62 61 65 65 60 60 65 70 70 68 66 63 61 60 58 57 57 57 54 52 50 47 45 45 45 45 45 44 44 45 44 43 41 39 38 37 37 35
27 27 26 24 24 22 21 22 23 23 23 23 24 26 27 29 31 33 35 36 37 38 39 40 40 39 39 42 49 58 66 71 76 80 80 78 75 74 76 79 80 80 79 79 79 76 72 69 64 61 64 64 59 57 63 69 69 67 66 63 60 59 59 58 57 57 55 53 52 50 48 48 48 48 47 46 47 48 47 46 44 42 40 39 38 37
29 28 27 26 26 24 24 25 25 24 23 23 24 25 24 24 26 29 31 33 35 37 39 40 40 41 40 40 43 50 58 66 72 77 81 83 80 77 76 79 82 83 82 81 81 80 78 76 71 64 61 59 52 49 57 68 70 66 65 64 61 59 60 59 58 57 56 53 52 51 51 51 51 50 49 48 48 49 49 48 46 45 43 42 41 40
30 30 30 30 28 26 26 28 27 25 24 25 26 26 25 25 26 28 29 31 32 34 36 38 39 40 41 42 43 45 50 57 65 72 78 83 85 82 79 80 82 84 85 84 83 83 82 82 79 72 65 60 53 45 48 60 69 68 65 64 62 60 60 60 60 59 57 54 52 52 53 54 54 53 52 51 51 51 52 51 51 49 46 44 44 43
29 29 30 30 27 26 27 28 28 28 28 30 32 32 31 30 30 30 31 32 33 34 34 35 37 39 41 42 43 44 46 50 57 65 72 78 84 87 85 83 83 85 86 86 85 85 85 84 83 80 75 72 65 54 45 47 58 66 66 62 60 59 58 58 60 60 59 57 55 53 55 55 55 54 54 55 55 55 56 56 56 53 49 46 45 45
28 28 28 27 25 26 28 27 26 27 29 32 34 35 34 34 34 33 33 33 34 35 35 34 35 37 39 41 43 44 45 47 51 58 65 71 78 85 89 87 85 85 87 88 88 87 87 86 85 84 83 81 76 67 56 46 47 58 64 62 59 58 56 55 56 57 59 58 57 55 55 55 56 56 57 58 57 57 57 59 59 56 51 47 46 46
Wind_Direction
207 208 206 204 205 208 209 208 207 207 203 195 189 186 187 198 211 210 203 200 197 193 191 188 184 182 181 177 169 160 154 150 152 155 158 159 158 160 165 167 159 144 160 192 198 186 178 176 173 173 170 165 163 162 160 157 155 156 159 160 159 158 158 159 159 161 162 159 157 156 154 147 139 133 129 126 124 120 118 115 113 113 111 111 110 110
206 206 205 205 206 206 207 208 209 208 205 199 192 186 184 192 206 207 203 200 196 195 194 193 190 185 185 185 180 173 166 160 159 159 160 162 165 169 176 178 165 145 138 165 191 193 184 180 177 175 175 171 166 166 167 164 162 161 162 163 164 165 165 164 164 165 165 161 156 155 154 147 138 132 129 127 126 122 119 116 115 116 116 115 113 111
205 205 207 209 208 206 205 208 210 210 208 203 197 190 184 191 202 203 203 202 196 196 197 197 197 192 189 191 189 185 180 173 169 167 165 166 170 170 176 180 164 153 161 159 170 186 188 185 182 178 180 180 174 171 172 169 167 165 164 166 171 174 171 167 165 163 160 157 153 152 151 143 136 133 132 131 129 124 120 117 117 120 123 121 117 114
203 205 211 212 211 208 206 208 211 213 211 206 202 195 189 193 199 200 203 204 199 198 197 198 202 200 196 198 198 194 190 183 176 173 170 171 175 176 177 176 169 169 180 174 163 173 184 187 186 183 184 186 181 174 173 173 172 169 168 171 176 179 177 172 165 157 153 152 150 147 144 140 138 138 138 137 134 128 122 118 119 124 128 126 122 119
207 209 213 214 213 211 209 208 212 214 214 210 206 202 196 197 200 200 203 205 202 201 201 200 203 205 205 206 206 202 199 192 180 174 174 177 180 183 181 171 173 178 181 182 170 167 176 183 187 187 185 187 186 180 176 177 177 175 174 174 176 178 180 176 165 156 152 150 150 150 147 145 148 149 148 144 138 132 127 124 125 129 130 130 129 126
212 214 217 216 214 213 211 210 212 213 214 212 210 207 203 203 204 203 203 205 203 202 206 207 204 205 208 211 212 208 206 203 191 180 178 184 184 186 187 175 176 180 179 186 181 166 173 182 187 189 187 187 189 187 183 180 179 181 180 175 174 177 179 177 169 162 158 156 157 160 158 157 158 157 154 147 138 133 131 130 132 133 132 134 134 131
218 220 221 220 217 215 213 212 212 213 213 210 209 208 208 207 208 207 205 205 203 203 209 211 206 206 209 211 214 212 212 213 209 197 187 188 189 190 193 185 179 180 179 184 186 170 171 180 186 189 188 189 192 192 189 185 181 182 182 178 175 177 177 177 175 170 166 165 166 167 165 164 162 158 155 147 138 135 136 136 138 137 136 138 140 137
223 223 223 223 221 219 217 215 215 215 213 209 206 206 208 209 210 211 209 206 204 207 211 211 209 209 210 211 215 216 216 219 218 210 199 194 195 196 199 196 187 186 185 184 184 182 174 173 183 189 190 191 193 195 193 189 185 182 182 182 179 178 178 179 179 177 175 173 171 169 166 165 164 160 156 149 140 139 141 143 143 144 145 147 148 146
224 223 223 225 224 221 219 217 216 215 211 209 207 205 205 207 210 213 212 207 207 210 210 211 212 211 210 213 217 219 219 220 220 214 204 198 196 196 199 201 197 195 197 195 192 192 185 178 181 189 194 194 193 194 195 192 189 185 183 182 181 180 181 183 181 180 181 177 171 169 167 166 168 164 158 151 145 145 148 149 150 152 155 156 155 153
225 223 224 225 223 221 219 219 218 214 210 210 211 208 206 207 210 215 214 210 211 212 209 212 213 210 211 214 216 217 218 221 220 213 205 200 198 197 198 201 202 202 205 207 206 204 199 192 188 188 195 197 193 193 196 194 189 185 183 182 181 182 185 187 185 181 180 177 173 173 171 169 170 167 163 158 154 154 157 158 158 159 160 160 158 155
227 226 225 224 222 220 219 220 218 214 211 213 214 211 209 210 211 216 217 214 216 215 210 212 215 211 211 216 218 215 207 203 206 205 202 197 192 191 195 200 203 204 206 210 211 212 212 209 202 194 194 197 196 195 196 195 190 185 183 183 182 184 187 189 188 183 178 177 179 180 177 173 173 172 168 165 163 164 165 166 165 163 163 164 163 161
227 227 226 225 223 220 219 219 217 214 212 214 215 212 211 212 214 217 219 219 221 218 211 213 217 213 211 216 219 215 202 195 197 198 195 187 182 183 187 191 197 201 204 206 207 211 218 221 215 204 196 197 199 198 196 196 194 189 185 184 184 186 189 189 189 184 179 182 185 184 183 180 178 177 174 172 170 169 169 169 169 167 164 165 166 165
227 227 227 226 224 220 219 218 216 214 214 214 215 214 212 213 215 219 221 223 225 222 214 215 219 217 213 214 217 214 205 199 201 202 195 187 183 182 183 187 191 195 200 203 206 210 217 221 215 205 196 194 196 199 200 199 198 195 191 186 184 187 191 191 190 187 183 186 189 188 188 186 183 181 180 179 176 172 171 173 174 171 165 165 166 163
226 226 226 226 224 221 218 218 216 214 215 215 216 215 213 214 216 220 223 225 227 225 218 217 220 219 214 212 214 213 208 204 206 207 203 198 193 187 184 186 188 192 195 197 202 207 211 212 208 201 192 186 186 193 199 202 201 200 197 192 188 189 192 193 192 190 187 189 192 192 192 189 188 186 182 182 181 178 179 178 176 174 170 169 168 164
225 224 224 223 223 221 219 218 217 214 214 216 217 217 216 216 217 220 224 226 228 229 224 221 222 220 215 210 207 207 207 207 209 209 207 206 204 199 194 191 190 194 196 195 195 197 203 206 205 201 194 187 186 190 194 199 202 201 201 199 196 193 193 195 194 193 193 193 193 195 195 193 192 189 185 183 182 183 184 183 182 180 176 174 171 167
224 224 223 222 223 222 219 219 218 215 214 214 216 217 217 218 218 220 225 227 228 230 228 226 226 223 216 209 204 204 208 210 208 204 201 202 204 206 205 200 195 195 198 198 195 193 199 206 206 202 198 193 193 193 194 196 199 201 201 201 199 196 194 195 195 194 196 196 195 196 196 196 195 192 189 186 185 186 185 187 188 185 179 175 172 169
222 223 224 222 223 223 221 219 218 216 214 214 215 217 217 218 219 220 224 227 228 229 228 228 228 227 221 212 206 205 208 207 203 199 199 200 203 205 206 205 200 196 197 198 195 193 197 202 201 200 202 201 200 198 198 198 199 201 202 201 199 197 195 195 196 196 196 195 196 198 198 197 197 195 193 192 190 188 187 189 189 186 182 177 174 171
221 223 224 223 223 223 222 221 219 217 215 214 214 216 216 216 218 220 222 226 227 228 228 228 229 229 226 217 208 205 204 202 199 200 202 205 205 205 205 205 202 198 195 193 192 193 196 197 195 197 202 204 204 203 201 202 203 203 203 201 199 197 195 195 197 198 197 193 194 198 199 198 198 198 198 198 196 192 190 191 191 191 190 182 176 174
220 221 224 223 222 223 223 222 220 218 216 215 215 215 216 216 217 219 221 225 227 227 228 229 229 231 230 222 212 205 203 202 200 202 206 209 208 205 203 204 203 199 195 191 190 192 195 195 194 196 200 202 204 207 207 207 208 207 205 203 200 197 197 196 196 198 197 194 192 195 199 199 198 199 201 202 201 198 196 196 197 199 196 190 189 184
221 221 223 223 222 223 224 223 222 219 216 215 215 215 215 216 217 218 220 224 226 227 228 229 230 232 232 228 217 208 206 206 205 206 209 211 208 202 197 195 190 185 182 183 186 187 190 196 197 194 195 200 204 208 213 213 214 213 211 206 201 200 199 199 198 198 197 196 194 193 197 200 200 200 202 204 205 204 204 202 202 204 200 198 200 194
221 222 223 225 223 224 225 224 223 221 219 217 215 215 215 216 217 218 219 221 224 227 229 230 231 232 233 233 225 214 208 209 211 211 211 211 207 198 189 183 175 163 157 163 173 180 185 195 200 195 192 198 204 209 214 216 216 217 216 212 206 202 202 201 200 200 199 199 196 194 195 198 201 201 202 204 206 209 210 208 208 207 204 203 203 201
221 222 223 225 225 224 225 226 225 223 221 219 217 216 216 216 217 219 220 221 223 225 228 230 232 233 234 235 232 224 216 212 213 214 214 211 205 196 189 184 179 172 163 159 164 174 181 188 196 199 196 199 204 210 216 220 221 221 220 218 213 207 204 203 202 201 201 201 200 197 196 198 201 201 200 201 204 209 211 212 213 211 207 206 206 206
219 221 222 224 227 227 227 228 227 225 223 222 220 219 217 217 217 219 220 222 222 224 227 229 231 233 234 235 235 232 226 219 216 216 215 211 204 199 197 196 198 200 194 181 172 173 180 185 190 196 199 199 202 209 215 221 225 225 223 222 218 212 207 205 204 203 203 203 202 201 200 201 202 202 200 199 202 207 209 211 213 213 211 211 209 209
217 218 219 221 225 227 228 229 230 228 225 223 223 222 220 219 218 218 220 222 222 224 226 228 231 233 234 235 236 235 233 228 223 221 219 213 206 203 205 207 210 213 214 209 195 183 182 186 190 194 197 197 199 205 210 216 222 225 225 224 221 216 211 208 206 205 205 205 205 204 204 204 204 204 202 200 201 207 210 211 212 213 214 215 212 211
219 218 218 219 222 225 227 228 229 230 228 225 224 224 223 222 220 220 220 222 223 224 225 227 230 233 234 234 235 236 236 233 229 226 225 220 211 208 210 214 216 219 222 223 219 208 197 192 191 193 196 197 198 202 206 210 216 221 224 224 223 220 215 210 207 207 207 207 207 207 207 206 205 204 202 202 203 207 211 212 213 214 216 217 215 214
221 220 219 219 220 223 226 227 227 229 230 229 226 225 224 223 223 222 222 223 224 225 225 226 228 232 233 234 235 236 236 236 233 229 228 225 220 214 214 217 219 222 225 227 226 223 218 211 201 196 197 198 199 201 204 206 210 214 219 221 222 222 218 213 209 208 209 209 209 208 208 208 207 203 202 203 204 208 211 213 213 215 217 218 218 217
223 223 222 222 222 223 226 227 227 227 229 230 230 228 226 224 224 225 224 224 225 227 227 227 227 230 232 233 235 235 235 236 235 232 229 227 226 223 221 220 221 222 225 227 227 226 226 224 217 210 207 205 201 200 202 205 206 209 212 216 220 222 220 216 212 210 209 210 210 210 209 209 208 205 203 204 205 209 212 213 213 215 217 219 220 220
227 226 225 225 225 226 227 229 229 228 228 230 231 231 229 227 226 226 226 226 226 227 229 229 229 229 231 232 235 235 234 234 234 233 230 228 228 228 228 226 226 225 226 226 226 225 225 227 225 221 219 217 210 204 202 204 205 207 209 211 215 219 220 218 214 212 211 210 211 211 211 210 209 208 207 206 207 210 212 214 215 215 216 218 219 220
230 229 227 226 226 227 229 231 232 231 230 230 231 232 232 231 229 227 227 227 227 227 228 231 231 230 230 232 234 235 234 233 233 232 230 228 228 229 230 231 230 230 230 229 227 225 224 225 227 225 222 223 220 213 208 206 206 207 208 210 213 216 218 219 217 214 213 212 211 212 213 213 211 210 210 210 210 211 213 215 216 216 216 217 217 219
236 235 231 228 227 227 229 231 233 233 233 232 232 233 234 233 232 230 229 228 228 227 228 230 232 231 230 231 234 236 235 234 233 231 228 225 226 228 230 232 231 231 233 232 229 227 226 224 227 228 225 224 223 219 215 212 210 209 209 210 213 215 217 219 219 217 215 213 212 213 214 215 214 212 212 213 213 213 213 214 216 217 217 217 216 218
244 243 240 235 232 229 228 230 232 234 235 234 234 235 236 236 235 233 232 230 229 228 227 229 231 232 231 230 232 234 235 234 232 231 226 221 221 225 228 230 230 229 231 232 230 230 229 226 227 230 227 223 221 220 219 217 215 214 213 214 215 216 218 219 220 219 218 216 215 215 215 216 216 215 215 214 215 215 215 214 215 216 217 217 217 218
254 252 250 245 240 236 232 230 231 233 234 235 236 236 236 237 237 236 234 233 231 230 228 228 230 231 231 230 230 232 234 234 231 229 226 220 217 220 224 227 228 227 228 228 227 229 230 228 227 229 227 222 219 220 219 218 217 217 216 217 218 218 220 220 220 221 220 218 217 218 217 217 218 217 217 216 216 217 217 216 216 216 218 219 219 220
261 260 258 254 249 245 240 237 233 232 233 234 235 236 236 236 237 237 236 235 234 233 232 230 229 230 231 230 231 231 232 233 231 227 224 219 216 218 221 224 226 225 224 224 224 226 228 227 226 227 226 222 219 218 218 217 216 217 219 220 220 221 223 222 222 222 222 221 220 220 219 218 218 219 218 218 218 218 218 218 217 217 218 220 222 223
264 263 263 260 257 253 249 245 241 238 236 234 233 234 236 236 237 237 237 236 235 235 234 233 231 230 230 229 230 230 231 231 230 226 222 218 216 216 218 221 221 221 220 220 222 225 227 228 227 226 225 222 220 218 217 216 215 216 219 221 222 223 225 224 223 223 223 224 224 224 223 221 220 219 219 219 219 219 219 219 218 218 219 220 223 225
264 263 262 261 260 258 255 252 248 245 243 239 235 234 234 235 236 237 237 237 237 236 236 235 234 232 230 229 228 229 230 231 229 226 221 218 216 215 216 217 218 217 217 219 222 224 227 227 226 225 225 223 221 219 218 216 216 216 218 221 224 225 226 225 224 224 225 225 225 225 225 225 223 222 221 221 220 220 220 219 219 219 220 221 223 225
260 259 258 258 259 258 257 255 252 250 249 246 242 239 236 234 234 235 236 236 237 237 236 236 236 235 233 231 228 227 229 231 230 227 222 218 216 215 215 215 215 215 217 219 222 224 226 226 225 225 225 224 222 220 219 218 217 216 217 220 224 226 227 227 226 225 225 226 226 226 225 225 224 224 224 224 224 223 222 221 220 221 221 222 223 224
258 257 256 256 256 256 256 256 254 253 253 250 248 245 242 238 235 233 234 235 236 237 237 238 237 236 235 233 230 227 226 229 230 228 224 220 217 216 215 214 216 218 219 219 221 223 225 225 224 223 225 226 224 222 220 219 218 218 218 220 222 225 227 227 227 226 225 226 228 228 227 226 226 225 225 226 227 227 227 226 225 224 224 224 224 225
258 257 256 256 257 257 257 257 256 256 255 254 253 251 249 245 240 236 233 234 235 235 236 237 238 238 236 235 233 229 226 227 228 228 226 222 219 217 217 216 218 222 222 219 220 223 224 225 225 224 224 225 226 224 222 220 219 219 220 220 222 224 225 226 226 226 226 226 227 228 230 229 228 227 226 227 228 228 229 230 231 231 230 228 227 226
260 259 259 259 259 259 259 259 258 257 257 259 260 259 256 252 248 243 238 235 234 234 234 235 237 238 237 236 235 232 228 226 227 227 225 223 221 220 220 219 220 222 222 220 221 223 225 225 226 226 225 226 227 226 224 223 221 220 220 221 222 223 224 224 224 224 225 226 227 228 230 230 229 228 228 228 227 225 225 227 230 234 236 236 234 232
266 264 264 264 264 264 263 261 259 258 258 261 262 263 263 260 255 250 244 239 237 235 234 234 235 236 236 236 235 234 231 227 226 226 225 223 222 222 222 221 221 220 221 222 223 222 224 225 226 226 226 226 228 228 226 226 225 223 222 223 224 224 223 223 222 222 222 223 225 226 228 228 229 229 229 227 225 223 224 225 226 231 235 238 239 238
284 276 272 270 269 268 267 264 262 259 258 259 260 262 265 266 262 256 250 246 244 240 236 234 234 234 235 235 235 235 234 231 227 227 226 223 221 223 223 221 219 219 221 223 223 222 222 224 225 226 227 227 229 230 228 226 228 227 225 225 226 227 225 223 221 220 220 221 221 222 223 223 223 224 224 223 222 222 224 225 226 229 232 233 235 238
304 296 289 281 276 274 272 270 266 260 255 255 256 259 264 268 266 262 256 252 249 246 242 238 235 234 234 234 234 234 235 234 230 227 227 225 221 222 225 223 219 219 221 223 222 221 221 223 224 225 227 228 228 230 230 227 227 229 228 226 226 227 227 226 223 220 219 219 220 220 219 218 217 217 218 219 220 221 222 225 227 230 230 228 230 234
303 303 300 293 287 283 281 278 274 266 257 254 254 257 262 266 269 268 265 260 256 252 248 244 240 236 234 233 234 233 234 235 233 230 228 227 223 221 224 225 222 220 222 223 222 220 220 223 224 225 227 229 227 227 230 229 227 228 230 228 226 226 227 227 226 224 220 218 218 218 217 216 213 213 214 215 217 219 221 223 227 228 226 224 226 229
295 298 300 298 293 289 285 282 278 270 264 259 257 258 261 264 266 267 267 267 265 261 255 251 247 242 237 234 233 233 233 233 234 232 229 228 226 222 222 225 225 224 223 224 224 221 219 221 224 226 228 232 230 227 228 230 228 227 229 229 226 225 226 226 226 226 223 219 216 215 215 215 212 211 212 214 217 220 222 224 226 227 224 221 222 225
287 291 295 295 293 290 287 283 277 271 268 265 263 263 264 264 264 264 264 265 266 265 262 258 254 249 243 238 234 233 233 232 233 233 231 229 228 225 223 224 225 226 226 226 225 222 219 220 224 226 228 232 233 230 228 229 228 227 227 226 224 223 225 226 226 226 225 221 218 217 215 214 214 213 213 214 217 220 222 224 225 225 223 221 222 224
277 283 287 290 290 289 287 284 280 275 272 269 267 266 265 264 264 264 264 264 264 264 264 262 258 254 250 243 238 234 233 233 232 232 231 229 229 228 226 225 225 226 228 229 228 226 222 220 221 224 228 231 234 234 230 227 225 225 225 224 222 221 223 225 226 226 225 222 220 221 220 217 217 217 216 215 216 219 221 223 224 224 224 224 225 226
273 277 281 283 284 284 283 282 281 279 278 276 273 270 268 267 265 264 264 264 263 263 263 262 261 259 255 250 244 238 235 234 233 232 231 230 229 228 228 227 226 226 227 229 230 229 227 224 222 222 225 229 233 234 229 223 221 223 225 225 223 221 221 223 225 226 225 222 221 223 223 222 221 222 220 217 218 221 223 223 224 225 226 227 228 229
272 274 277 277 278 280 280 278 278 280 281 278 276 275 275 275 273 269 266 264 262 262 261 262 262 262 259 256 252 244 238 236 234 233 232 231 229 228 228 228 228 227 227 228 230 231 231 230 226 222 220 223 226 230 228 223 221 223 226 226 224 222 221 222 223 225 225 222 219 221 224 224 225 225 224 222 222 223 224 225 225 226 226 228 230 231
273 275 276 276 274 275 277 276 276 279 280 279 278 280 282 282 281 278 275 271 267 263 261 261 261 261 260 258 256 252 245 240 237 235 234 232 230 228 228 228 229 229 228 228 229 231 232 233 232 227 221 221 225 228 227 224 222 222 224 225 224 221 221 221 222 223 225 224 222 223 225 226 227 227 227 226 224 224 226 229 229 227 226 227 231 232
272 273 276 278 275 272 273 276 276 277 279 279 279 282 285 286 284 283 281 278 274 270 266 263 260 260 260 259 257 255 251 246 242 239 236 234 231 229 227 228 229 229 229 228 229 230 232 234 235 233 228 226 228 230 230 228 225 223 222 224 224 221 219 220 221 222 224 225 225 225 227 228 229 230 230 229 228 228 229 230 231 228 225 225 230 232
270 270 275 280 278 273 272 275 277 278 279 279 280 281 283 283 283 283 282 279 276 273 271 268 264 262 261 260 258 257 254 251 248 243 239 236 234 231 228 228 228 229 229 229 229 230 232 234 236 236 235 233 232 232 232 234 233 227 223 223 224 223 221 221 222 223 224 226 226 227 227 229 230 231 232 233 233 233 230 228 228 228 224 223 228 231
Height
5838 5840 5844 5846 5847 5849 5851 5853 5855 5856 5858 5861 5863 5865 5868 5871 5872 5874 5876 5878 5881 5881 5881 5882 5884 5885 5887 5888 5889 5890 5891 5893 5895 5897 5899 5900 5902 5903 5904 5904 5905 5907 5910 5911 5912 5913 5915 5916 5918 5919 5920 5921 5922 5923 5924 5924 5925 5926 5927 5928 5928 5929 5930 5931 5932 5932 5933 5933 5934 5935 5936 5937 5938 5940 5941 5942 5943 5944 5944 5945 5946 5947 5948 5948 5949 5949
5837 5839 5842 5843 5844 5846 5848 5850 5852 5853 5856 5859 5861 5863 5866 5869 5870 5872 5874 5877 5879 5880 5880 5882 5884 5886 5887 5888 5889 5890 5890 5891 5893 5895 5897 5899 5901 5903 5904 5905 5905 5906 5909 5911 5912 5913 5915 5916 5918 5919 5921 5922 5922 5923 5924 5925 5925 5926 5927 5928 5929 5929 5930 5931 5932 5933 5933 5934 5935 5936 5937 5938 5939 5940 5941 5943 5944 5945 5945 5946 5947 5948 5949 5950 5950 5950
5836 5838 5839 5839 5840 5843 5845 5847 5849 5851 5854 5856 5859 5861 5864 5866 5868 5870 5873 5875 5877 5878 5880 5881 5883 5885 5886 5887 5888 5889 5889 5890 5891 5893 5895 5897 5899 5902 5903 5904 5905 5906 5907 5910 5911 5913 5914 5916 5918 5919 5921 5922 5922 5923 5924 5925 5926 5927 5928 5929 5930 5930 5931 5931 5932 5933 5934 5935 5936 5937 5938 5939 5940 5941 5942 5944 5945 5945 5946 5947 5948 5949 5950 5951 5951 5952
5835 5836 5835 5836 5838 5841 5843 5845 5847 5849 5851 5854 5857 5859 5862 5864 5866 5868 5871 5873 5876 5877 5879 5881 5882 5884 5885 5886 5888 5889 5890 5890 5890 5892 5894 5896 5898 5900 5901 5903 5904 5905 5906 5908 5910 5912 5914 5916 5918 5919 5920 5922 5923 5923 5924 5925 5926 5927 5928 5929 5930 5931 5932 5932 5933 5934 5935 5936 5937 5938 5939 5940 5941 5942 5943 5945 5945 5946 5947 5947 5949 5951 5952 5952 5953 5953
5832 5832 5832 5834 5837 5839 5842 5844 5845 5847 5850 5853 5856 5858 5861 5862 5864 5866 5869 5871 5874 5876 5878 5879 5881 5884 5886 5887 5888 5889 5891 5891 5891 5892 5894 5895 5897 5899 5901 5902 5904 5905 5905 5907 5909 5911 5913 5915 5917 5918 5920 5922 5923 5924 5924 5925 5926 5927 5927 5928 5930 5931 5932 5933 5934 5935 5936 5937 5938 5939 5940 5941 5942 5942 5944 5945 5946 5947 5947 5948 5950 5952 5953 5953 5954 5954
5828 5828 5830 5833 5835 5838 5840 5842 5844 5846 5848 5851 5854 5857 5859 5860 5862 5864 5867 5869 5872 5875 5876 5877 5880 5883 5885 5886 5888 5889 5891 5892 5892 5893 5894 5896 5897 5899 5901 5902 5903 5905 5906 5907 5908 5910 5912 5913 5915 5917 5919 5921 5922 5924 5924 5925 5926 5927 5928 5929 5930 5931 5932 5933 5934 5935 5936 5937 5938 5939 5940 5940 5941 5943 5944 5946 5946 5948 5949 5950 5952 5953 5954 5954 5955 5955
5824 5826 5829 5831 5833 5835 5837 5839 5841 5844 5846 5849 5853 5856 5857 5858 5860 5862 5864 5867 5870 5872 5872 5875 5878 5880 5883 5885 5887 5888 5890 5891 5892 5893 5894 5896 5898 5899 5900 5902 5903 5904 5906 5907 5908 5910 5911 5913 5914 5916 5918 5920 5921 5923 5924 5925 5926 5927 5929 5930 5930 5931 5932 5933 5935 5936 5937 5938 5938 5939 5940 5941 5942 5944 5945 5946 5946 5948 5950 5951 5953 5954 5955 5955 5956 5956
5821 5825 5827 5828 5831 5834 5836 5838 5840 5842 5845 5848 5851 5852 5854 5856 5857 5859 5862 5865 5868 5869 5870 5873 5877 5879 5882 5884 5886 5887 5889 5890 5892 5894 5895 5896 5897 5899 5900 5901 5903 5904 5905 5907 5908 5909 5911 5912 5913 5914 5916 5918 5920 5921 5923 5925 5926 5927 5929 5930 5931 5932 5933 5934 5935 5936 5937 5938 5939 5940 5941 5942 5944 5945 5946 5947 5947 5949 5951 5952 5954 5955 5955 5956 5957 5957
5818 5822 5824 5826 5829 5832 5834 5836 5838 5841 5844 5846 5846 5848 5850 5852 5854 5855 5858 5862 5865 5866 5868 5872 5875 5878 5881 5883 5884 5886 5889 5892 5894 5894 5894 5895 5897 5898 5899 5900 5902 5903 5905 5906 5907 5908 5909 5911 5912 5913 5914 5915 5918 5920 5922 5924 5925 5927 5928 5930 5931 5932 5933 5934 5935 5936 5937 5939 5940 5941 5942 5943 5945 5946 5947 5948 5949 5950 5952 5953 5954 5955 5956 5957 5957 5958
5815 5818 5821 5824 5827 5829 5832 5833 5836 5840 5841 5842 5842 5845 5848 5849 5850 5852 5855 5859 5861 5863 5867 5870 5872 5877 5880 5882 5883 5887 5891 5894 5895 5894 5893 5894 5896 5897 5898 5899 5901 5902 5904 5905 5906 5907 5907 5909 5910 5911 5912 5913 5916 5918 5920 5922 5924 5926 5928 5930 5932 5933 5934 5934 5935 5937 5938 5939 5940 5942 5943 5944 5945 5946 5947 5948 5950 5951 5952 5954 5954 5955 5956 5957 5957 5958
5812 5816 5818 5821 5824 5827 5829 5831 5835 5837 5838 5838 5841 5844 5846 5847 5848 5849 5852 5856 5857 5860 5866 5869 5871 5875 5878 5881 5884 5887 5891 5892 5892 5892 5892 5893 5895 5896 5897 5898 5899 5901 5902 5903 5904 5905 5906 5907 5908 5910 5911 5913 5915 5917 5919 5922 5924 5925 5927 5929 5931 5932 5934 5935 5936 5937 5938 5940 5941 5942 5943 5945 5946 5947 5948 5949 5950 5951 5952 5954 5954 5955 5955 5956 5957 5957
5809 5813 5815 5818 5821 5824 5826 5829 5832 5834 5835 5836 5839 5842 5844 5846 5846 5847 5849 5852 5853 5858 5864 5867 5869 5872 5876 5879 5881 5883 5884 5885 5886 5888 5889 5891 5892 5893 5895 5896 5897 5899 5900 5901 5902 5903 5905 5906 5908 5910 5911 5912 5913 5916 5919 5921 5923 5925 5927 5929 5931 5932 5934 5935 5936 5937 5939 5940 5941 5942 5943 5945 5946 5947 5948 5949 5950 5951 5952 5953 5954 5954 5954 5955 5956 5957
5806 5809 5812 5815 5818 5820 5823 5825 5828 5830 5832 5834 5836 5839 5841 5843 5844 5845 5847 5848 5850 5856 5862 5865 5866 5870 5874 5876 5877 5878 5879 5880 5882 5883 5884 5886 5887 5889 5891 5893 5895 5897 5898 5900 5901 5902 5903 5905 5907 5909 5910 5911 5913 5915 5918 5920 5922 5924 5926 5928 5930 5932 5934 5935 5936 5937 5939 5940 5941 5942 5943 5945 5946 5947 5948 5949 5950 5951 5952 5953 5954 5954 5954 5955 5955 5956
5803 5806 5809 5812 5814 5817 5819 5821 5824 5827 5829 5831 5833 5836 5838 5840 5842 5843 5844 5846 5848 5853 5859 5862 5863 5867 5871 5873 5874 5876 5877 5878 5879 5880 5881 5883 5884 5885 5887 5889 5892 5894 5896 5898 5900 5902 5903 5905 5906 5908 5909 5910 5911 5913 5916 5918 5921 5923 5925 5927 5929 5931 5933 5934 5936 5937 5938 5939 5941 5942 5943 5944 5946 5947 5948 5949 5950 5951 5953 5953 5954 5955 5955 5955 5956 5956
5799 5802 5804 5807 5810 5813 5816 5818 5820 5823 5826 5829 5831 5833 5836 5838 5840 5841 5843 5845 5848 5851 5856 5859 5861 5864 5868 5871 5873 5874 5875 5877 5879 5880 5882 5883 5884 5884 5885 5887 5890 5892 5894 5896 5898 5901 5902 5904 5905 5907 5908 5909 5910 5911 5914 5916 5919 5921 5924 5926 5928 5930 5932 5934 5935 5936 5937 5939 5940 5942 5943 5944 5946 5947 5948 5950 5951 5952 5953 5954 5955 5955 5956 5956 5956 5956
5796 5798 5801 5804 5807 5809 5812 5814 5817 5820 5823 5825 5828 5830 5833 5835 5838 5840 5842 5844 5846 5849 5853 5855 5857 5860 5865 5869 5871 5872 5873 5875 5877 5879 5881 5882 5884 5885 5886 5887 5889 5891 5893 5895 5897 5899 5901 5902 5904 5906 5907 5908 5909 5910 5912 5914 5917 5920 5922 5924 5926 5928 5930 5932 5934 5935 5936 5938 5940 5941 5942 5944 5945 5947 5948 5950 5951 5951 5953 5954 5955 5956 5956 5957 5957 5956
5792 5794 5797 5801 5803 5805 5809 5811 5813 5816 5819 5822 5825 5827 5830 5833 5836 5838 5839 5841 5843 5846 5849 5852 5854 5857 5862 5866 5868 5869 5871 5873 5875 5877 5879 5880 5882 5884 5887 5888 5888 5889 5891 5894 5896 5897 5899 5901 5903 5905 5906 5907 5908 5910 5911 5913 5915 5917 5919 5921 5924 5926 5928 5930 5932 5934 5935 5937 5939 5941 5942 5943 5945 5946 5948 5949 5950 5951 5952 5953 5954 5955 5956 5956 5957 5956
5790 5792 5794 5797 5799 5802 5805 5808 5810 5813 5816 5819 5821 5823 5827 5830 5832 5834 5836 5838 5840 5843 5846 5848 5850 5853 5857 5861 5864 5867 5869 5871 5873 5875 5877 5879 5881 5883 5886 5888 5888 5888 5889 5891 5893 5895 5897 5899 5902 5904 5905 5906 5907 5909 5910 5911 5913 5914 5917 5919 5921 5924 5926 5928 5930 5932 5933 5935 5938 5939 5941 5942 5944 5945 5946 5948 5949 5950 5951 5952 5953 5954 5955 5956 5956 5956
5787 5789 5791 5793 5795 5798 5801 5804 5807 5809 5812 5815 5818 5821 5824 5827 5828 5831 5833 5834 5837 5840 5842 5844 5847 5850 5852 5857 5861 5865 5866 5868 5870 5873 5875 5877 5879 5881 5884 5886 5888 5888 5888 5889 5891 5893 5896 5898 5900 5902 5903 5905 5906 5907 5908 5909 5911 5913 5915 5917 5920 5922 5923 5925 5927 5929 5931 5934 5936 5938 5940 5941 5942 5944 5945 5947 5948 5950 5951 5952 5952 5954 5955 5955 5956 5956
5785 5787 5788 5790 5792 5795 5797 5800 5803 5806 5809 5811 5814 5817 5820 5822 5824 5827 5830 5831 5834 5836 5838 5841 5844 5846 5848 5852 5857 5860 5862 5865 5867 5870 5872 5875 5877 5879 5882 5884 5886 5888 5888 5889 5890 5891 5894 5896 5897 5899 5901 5903 5905 5906 5907 5908 5910 5912 5913 5915 5918 5920 5921 5923 5926 5928 5930 5932 5934 5936 5938 5940 5941 5943 5944 5946 5947 5949 5950 5951 5952 5953 5954 5955 5955 5956
5783 5784 5785 5787 5790 5792 5794 5796 5799 5802 5805 5808 5811 5814 5816 5818 5821 5824 5826 5828 5831 5833 5835 5837 5840 5842 5844 5847 5852 5856 5859 5861 5864 5867 5869 5872 5875 5878 5880 5882 5884 5886 5887 5888 5889 5890 5891 5892 5894 5895 5897 5900 5902 5904 5906 5907 5909 5910 5912 5914 5916 5918 5920 5922 5925 5927 5928 5930 5932 5934 5936 5938 5939 5941 5943 5944 5946 5947 5948 5950 5951 5952 5953 5954 5955 5955
5780 5782 5783 5784 5787 5789 5790 5793 5796 5799 5802 5805 5807 5810 5813 5815 5818 5820 5822 5825 5827 5829 5831 5834 5836 5839 5841 5844 5848 5852 5855 5858 5860 5863 5866 5870 5873 5876 5878 5880 5882 5883 5884 5885 5886 5887 5888 5889 5891 5892 5894 5897 5900 5902 5904 5906 5907 5909 5911 5913 5915 5917 5919 5920 5923 5925 5927 5928 5930 5933 5934 5936 5937 5939 5941 5943 5944 5945 5947 5948 5950 5951 5952 5953 5954 5954
5778 5779 5781 5782 5783 5785 5787 5789 5792 5796 5799 5801 5804 5806 5809 5812 5814 5817 5819 5821 5824 5826 5828 5830 5833 5835 5838 5840 5844 5848 5851 5854 5857 5860 5863 5867 5870 5873 5875 5877 5879 5880 5882 5882 5882 5882 5884 5885 5886 5888 5890 5893 5897 5900 5902 5904 5906 5908 5909 5911 5913 5915 5917 5919 5920 5922 5924 5926 5928 5930 5932 5933 5935 5937 5939 5941 5942 5944 5945 5947 5948 5950 5951 5952 5952 5953
5774 5776 5778 5779 5780 5782 5784 5786 5788 5792 5795 5798 5800 5802 5805 5808 5811 5814 5815 5818 5821 5823 5825 5828 5830 5831 5834 5837 5840 5843 5846 5850 5854 5857 5860 5863 5867 5870 5872 5874 5875 5877 5879 5881 5881 5881 5881 5881 5882 5884 5887 5890 5893 5897 5899 5902 5904 5906 5907 5909 5910 5913 5915 5916 5918 5920 5922 5924 5926 5928 5930 5932 5933 5935 5937 5939 5940 5941 5943 5944 5946 5948 5949 5950 5951 5952
5771 5772 5774 5776 5777 5778 5780 5782 5785 5787 5790 5793 5796 5798 5801 5804 5807 5810 5812 5814 5817 5819 5822 5825 5826 5827 5829 5833 5835 5838 5842 5846 5850 5854 5856 5860 5864 5867 5869 5870 5872 5874 5876 5878 5881 5881 5881 5880 5880 5881 5883 5886 5889 5892 5895 5898 5900 5903 5905 5906 5908 5909 5911 5913 5915 5917 5919 5922 5923 5925 5927 5929 5932 5934 5936 5937 5938 5939 5941 5942 5944 5945 5946 5948 5949 5950
5767 5769 5770 5772 5773 5775 5776 5779 5781 5783 5786 5788 5791 5793 5796 5799 5802 5805 5808 5811 5813 5816 5818 5821 5823 5823 5825 5828 5831 5834 5838 5842 5846 5849 5852 5856 5859 5862 5865 5866 5868 5870 5872 5874 5877 5880 5881 5882 5881 5881 5881 5882 5885 5888 5890 5893 5896 5899 5901 5903 5905 5906 5907 5910 5912 5914 5916 5918 5921 5923 5925 5927 5929 5932 5933 5934 5936 5936 5938 5939 5941 5943 5944 5945 5946 5947
5765 5766 5767 5769 5770 5772 5773 5775 5778 5780 5782 5784 5786 5788 5791 5795 5798 5800 5804 5807 5810 5813 5815 5817 5819 5819 5821 5825 5826 5830 5834 5837 5841 5845 5848 5851 5854 5857 5859 5862 5864 5867 5868 5871 5873 5876 5879 5880 5882 5883 5882 5882 5882 5883 5886 5888 5891 5894 5896 5899 5901 5903 5904 5906 5908 5910 5913 5915 5918 5920 5922 5924 5927 5929 5930 5931 5932 5933 5935 5936 5938 5940 5941 5943 5944 5945
5763 5764 5766 5767 5768 5769 5770 5772 5774 5777 5778 5780 5782 5784 5787 5791 5793 5796 5799 5801 5805 5809 5810 5811 5813 5815 5818 5821 5822 5824 5829 5833 5836 5840 5843 5847 5849 5852 5854 5857 5860 5862 5864 5867 5870 5872 5874 5877 5879 5881 5882 5882 5881 5881 5881 5883 5886 5889 5891 5894 5896 5898 5900 5902 5904 5907 5909 5912 5914 5917 5919 5921 5923 5925 5926 5927 5929 5930 5932 5933 5935 5937 5938 5940 5942 5943
5760 5762 5763 5765 5766 5767 5768 5769 5771 5773 5775 5777 5778 5780 5783 5786 5789 5792 5794 5797 5801 5804 5804 5805 5807 5810 5815 5817 5818 5819 5823 5828 5832 5835 5838 5842 5844 5847 5849 5851 5855 5858 5860 5863 5865 5867 5870 5872 5874 5877 5879 5880 5881 5880 5879 5879 5881 5884 5886 5889 5892 5895 5897 5899 5901 5903 5905 5908 5911 5913 5915 5917 5919 5921 5922 5924 5925 5927 5929 5931 5932 5934 5935 5937 5939 5941
5757 5759 5760 5762 5763 5764 5765 5766 5768 5769 5771 5773 5774 5776 5779 5782 5784 5787 5790 5793 5796 5798 5799 5800 5802 5806 5810 5813 5814 5815 5818 5822 5827 5830 5833 5836 5839 5842 5844 5847 5850 5853 5855 5858 5861 5863 5865 5867 5870 5872 5875 5877 5878 5879 5879 5879 5880 5881 5883 5885 5888 5891 5894 5896 5898 5900 5902 5904 5907 5909 5911 5913 5915 5917 5919 5921 5923 5925 5926 5928 5929 5931 5932 5934 5936 5937
5754 5755 5757 5759 5760 5762 5763 5763 5764 5766 5767 5769 5771 5773 5775 5778 5780 5783 5785 5788 5791 5792 5793 5795 5797 5800 5805 5808 5810 5812 5814 5817 5821 5825 5828 5832 5834 5837 5839 5842 5845 5848 5850 5853 5856 5858 5860 5863 5866 5868 5871 5873 5874 5876 5877 5878 5880 5881 5881 5883 5885 5888 5890 5892 5895 5897 5899 5902 5904 5905 5907 5910 5912 5914 5916 5918 5920 5921 5923 5925 5926 5928 5930 5931 5933 5934
5751 5752 5753 5755 5756 5758 5759 5760 5761 5762 5763 5765 5767 5769 5771 5773 5774 5777 5780 5783 5785 5786 5788 5791 5793 5795 5799 5802 5805 5807 5809 5812 5816 5820 5824 5827 5829 5832 5835 5837 5840 5843 5845 5848 5851 5853 5855 5858 5861 5863 5866 5869 5870 5872 5874 5875 5877 5879 5880 5881 5883 5885 5887 5889 5892 5894 5897 5899 5900 5902 5904 5906 5909 5911 5913 5915 5916 5918 5920 5921 5923 5925 5927 5929 5930 5931
5747 5748 5749 5750 5752 5753 5755 5756 5757 5758 5760 5761 5762 5764 5766 5768 5769 5772 5775 5777 5779 5781 5783 5785 5787 5790 5793 5797 5799 5802 5805 5807 5810 5814 5818 5821 5824 5827 5830 5833 5835 5838 5840 5843 5845 5848 5850 5852 5855 5857 5860 5863 5866 5867 5869 5871 5873 5875 5877 5879 5881 5882 5884 5886 5889 5891 5893 5895 5897 5898 5901 5903 5905 5907 5909 5911 5912 5914 5915 5917 5920 5922 5924 5926 5927 5928
5743 5744 5744 5745 5746 5748 5750 5751 5753 5754 5755 5756 5758 5759 5761 5763 5765 5767 5769 5771 5774 5775 5777 5779 5782 5785 5788 5790 5793 5797 5799 5801 5804 5808 5812 5816 5819 5823 5826 5828 5831 5833 5836 5838 5840 5843 5845 5847 5849 5851 5854 5858 5861 5863 5865 5867 5869 5871 5874 5876 5878 5880 5882 5884 5886 5888 5890 5891 5893 5895 5898 5900 5902 5903 5905 5907 5908 5910 5912 5914 5916 5919 5920 5922 5923 5925
5738 5739 5740 5740 5741 5743 5744 5746 5747 5748 5748 5750 5753 5755 5756 5757 5760 5762 5764 5766 5768 5769 5771 5774 5776 5779 5782 5785 5788 5791 5794 5795 5799 5803 5806 5810 5813 5817 5820 5823 5826 5829 5831 5833 5836 5838 5840 5842 5844 5846 5849 5853 5856 5858 5861 5863 5865 5867 5869 5872 5875 5877 5879 5881 5882 5884 5886 5888 5890 5892 5894 5896 5899 5900 5902 5903 5904 5906 5908 5911 5913 5915 5916 5918 5919 5921
5734 5735 5736 5736 5737 5738 5739 5740 5741 5742 5743 5746 5748 5749 5750 5752 5754 5756 5758 5759 5761 5764 5766 5768 5770 5773 5776 5779 5783 5786 5788 5790 5794 5797 5800 5804 5807 5811 5815 5818 5821 5823 5826 5828 5831 5833 5835 5837 5839 5842 5844 5847 5850 5853 5856 5859 5861 5863 5865 5868 5870 5873 5875 5877 5879 5881 5882 5884 5885 5887 5889 5892 5894 5897 5899 5900 5902 5904 5906 5908 5910 5911 5913 5914 5915 5917
5731 5732 5732 5733 5733 5734 5734 5735 5736 5738 5739 5740 5741 5742 5744 5746 5748 5750 5752 5753 5755 5759 5761 5763 5764 5767 5770 5773 5776 5779 5782 5784 5788 5791 5794 5798 5801 5805 5809 5812 5815 5818 5821 5824 5826 5827 5830 5832 5834 5837 5839 5842 5845 5848 5851 5854 5857 5859 5861 5863 5866 5868 5870 5872 5875 5877 5878 5880 5882 5884 5885 5888 5890 5893 5896 5898 5901 5903 5906 5907 5909 5909 5910 5911 5912 5914
5728 5728 5729 5729 5730 5730 5731 5731 5732 5734 5734 5734 5734 5735 5737 5739 5741 5744 5746 5747 5750 5754 5756 5757 5758 5761 5764 5766 5769 5772 5775 5778 5781 5785 5788 5791 5795 5798 5802 5805 5809 5812 5815 5818 5820 5821 5824 5826 5829 5831 5834 5836 5839 5843 5846 5849 5852 5854 5857 5859 5861 5862 5863 5865 5868 5871 5874 5875 5877 5880 5882 5885 5888 5890 5893 5895 5899 5901 5904 5906 5908 5908 5909 5909 5910 5911
5725 5725 5726 5726 5726 5727 5727 5728 5729 5730 5730 5729 5730 5730 5731 5732 5734 5736 5739 5743 5746 5748 5749 5750 5751 5753 5756 5759 5761 5764 5768 5771 5774 5777 5781 5785 5788 5791 5795 5798 5802 5805 5808 5811 5813 5815 5818 5821 5823 5826 5829 5831 5833 5837 5841 5844 5846 5849 5851 5853 5854 5855 5856 5859 5861 5865 5868 5871 5874 5876 5879 5882 5885 5887 5890 5893 5895 5897 5899 5901 5903 5905 5907 5909 5910 5910
5722 5722 5722 5723 5723 5723 5723 5724 5725 5726 5726 5726 5725 5725 5725 5726 5726 5729 5734 5738 5740 5740 5742 5743 5744 5746 5748 5752 5754 5757 5760 5764 5766 5770 5774 5778 5781 5784 5787 5791 5795 5798 5800 5803 5807 5809 5811 5815 5817 5820 5823 5826 5828 5832 5836 5839 5841 5843 5845 5847 5848 5850 5852 5854 5856 5859 5862 5866 5869 5872 5876 5879 5882 5884 5887 5889 5891 5893 5894 5895 5897 5900 5904 5907 5908 5909
5719 5719 5719 5719 5719 5719 5719 5720 5720 5722 5722 5722 5721 5721 5721 5721 5722 5724 5729 5731 5731 5732 5734 5736 5737 5739 5741 5744 5747 5750 5752 5756 5759 5762 5766 5771 5774 5777 5780 5784 5787 5791 5793 5796 5799 5802 5804 5807 5811 5814 5817 5820 5822 5826 5830 5833 5835 5837 5840 5843 5844 5847 5849 5851 5853 5855 5858 5861 5864 5868 5871 5875 5878 5881 5883 5885 5887 5888 5890 5891 5893 5895 5899 5902 5903 5905
5717 5717 5717 5716 5716 5716 5716 5716 5716 5717 5718 5718 5717 5718 5718 5717 5718 5720 5722 5722 5722 5724 5727 5728 5730 5731 5733 5736 5739 5742 5745 5748 5752 5755 5758 5762 5767 5770 5773 5777 5781 5784 5786 5789 5792 5795 5797 5800 5804 5808 5812 5814 5817 5820 5824 5827 5829 5832 5835 5838 5840 5843 5848 5851 5852 5853 5856 5858 5860 5863 5866 5870 5873 5876 5878 5880 5883 5885 5887 5888 5889 5891 5894 5898 5900 5902
5715 5714 5714 5714 5713 5712 5712 5712 5712 5713 5714 5714 5714 5715 5715 5715 5715 5716 5715 5715 5716 5717 5719 5720 5722 5723 5725 5728 5731 5734 5737 5740 5744 5748 5751 5754 5759 5762 5765 5769 5773 5776 5779 5782 5785 5788 5791 5794 5797 5801 5804 5807 5810 5813 5817 5820 5824 5827 5830 5833 5836 5840 5844 5848 5850 5851 5852 5855 5856 5857 5860 5864 5868 5871 5873 5876 5878 5880 5882 5884 5886 5888 5891 5895 5897 5899
5712 5712 5711 5711 5710 5710 5709 5709 5709 5709 5710 5710 5710 5711 5711 5711 5712 5712 5711 5711 5711 5711 5712 5713 5714 5715 5717 5720 5723 5726 5729 5732 5735 5740 5744 5747 5751 5754 5757 5761 5765 5768 5771 5774 5778 5781 5785 5788 5790 5793 5796 5799 5803 5806 5810 5814 5818 5821 5824 5827 5832 5835 5838 5842 5845 5847 5849 5851 5852 5852 5854 5858 5862 5866 5868 5870 5873 5876 5878 5880 5882 5885 5888 5891 5893 5895
5709 5709 5708 5708 5707 5707 5706 5706 5706 5706 5706 5706 5706 5707 5707 5707 5707 5707 5707 5707 5706 5705 5705 5706 5707 5707 5709 5711 5714 5718 5721 5723 5726 5731 5736 5739 5743 5746 5749 5752 5756 5760 5763 5766 5770 5774 5778 5781 5784 5787 5790 5793 5797 5800 5804 5807 5811 5815 5818 5821 5825 5829 5833 5836 5839 5842 5844 5847 5849 5850 5852 5855 5859 5861 5862 5864 5868 5871 5874 5877 5879 5882 5885 5887 5889 5891
5706 5706 5705 5705 5704 5704 5703 5702 5702 5702 5702 5702 5702 5702 5702 5703 5703 5702 5702 5702 5702 5701 5700 5700 5701 5701 5702 5704 5706 5709 5712 5715 5717 5722 5726 5730 5734 5738 5741 5743 5747 5752 5755 5757 5761 5766 5770 5774 5778 5781 5783 5787 5791 5794 5796 5799 5804 5807 5811 5814 5818 5822 5827 5830 5834 5836 5839 5842 5845 5848 5850 5852 5855 5857 5858 5860 5864 5867 5870 5873 5876 5879 5881 5883 5885 5887
5702 5702 5702 5701 5701 5700 5699 5698 5698 5698 5698 5698 5698 5698 5698 5698 5698 5697 5697 5696 5696 5696 5695 5694 5695 5695 5696 5697 5699 5701 5704 5706 5709 5712 5716 5720 5725 5730 5733 5735 5738 5743 5747 5750 5753 5757 5762 5766 5770 5774 5777 5781 5785 5787 5789 5792 5797 5801 5804 5807 5811 5816 5820 5825 5828 5831 5834 5837 5839 5843 5846 5848 5850 5853 5855 5858 5861 5864 5867 5869 5872 5874 5877 5880 5883 5885
5698 5698 5698 5697 5697 5696 5695 5694 5694 5694 5694 5693 5693 5693 5693 5693 5693 5692 5692 5691 5691 5690 5689 5689 5689 5690 5691 5692 5692 5693 5696 5698 5700 5703 5706 5711 5716 5721 5724 5727 5730 5733 5738 5742 5745 5749 5753 5757 5761 5765 5770 5774 5778 5781 5783 5786 5790 5794 5798 5801 5806 5810 5814 5818 5822 5825 5828 5831 5834 5837 5840 5843 5845 5848 5851 5855 5858 5861 5864 5866 5868 5870 5873 5876 5879 5881
5694 5694 5693 5693 5693 5693 5691 5690 5689 5690 5690 5689 5688 5688 5689 5689 5688 5687 5686 5685 5685 5684 5684 5684 5684 5684 5684 5685 5685 5686 5688 5690 5691 5693 5697 5701 5706 5711 5715 5718 5721 5724 5729 5734 5738 5741 5744 5748 5752 5757 5761 5766 5770 5774 5776 5779 5784 5788 5791 5795 5800 5804 5808 5812 5816 5819 5822 5826 5829 5832 5835 5838 5840 5843 5847 5850 5853 5856 5859 5862 5864 5865 5868 5871 5874 5876
5689 5689 5688 5688 5689 5688 5687 5686 5685 5685 5685 5684 5683 5683 5683 5683 5683 5682 5681 5680 5679 5678 5678 5679 5679 5678 5678 5678 5679 5679 5681 5682 5683 5684 5687 5692 5697 5702 5706 5709 5712 5716 5720 5724 5729 5733 5736 5740 5744 5748 5752 5756 5762 5767 5770 5773 5777 5781 5785 5789 5793 5797 5801 5805 5810 5813 5816 5820 5824 5827 5830 5833 5836 5839 5841 5844 5846 5850 5853 5857 5859 5861 5863 5866 5869 5871
5684 5684 5684 5684 5684 5683 5682 5681 5681 5681 5680 5679 5678 5678 5678 5678 5677 5676 5675 5674 5673 5672 5672 5673 5673 5672 5672 5672 5672 5672 5673 5675 5675 5675 5679 5684 5688 5692 5696 5700 5703 5708 5712 5715 5720 5725 5729 5732 5736 5740 5743 5746 5753 5759 5764 5767 5771 5775 5779 5783 5787 5791 5795 5799 5804 5807 5811 5814 5817 5821 5825 5828 5831 5834 5836 5838 5840 5843 5847 5851 5854 5856 5859 5861 5864 5865